• In Spain
  • List of Countries
  • For 7 days
  • Water Temperature
  • Satellite Maps
  • Weather Map
  • Weather Widgets
  • user-avatar
    Login

    Hourly Weather Tuktamysh

    Today, 15 August, Wednesday

    Time Temperature Precipitation Wind Pressure Humidity
    00:00 +14°C° 0 mm 2 mps 750 mmHg 79%
    01:00 +13°C° 0 mm 2 mps 750 mmHg 79%
    02:00 +13°C° 0 mm 2 mps 751 mmHg 79%
    03:00 +13°C° 0 mm 2 mps 751 mmHg 80%
    04:00 +13°C° 0 mm 2 mps 751 mmHg 80%
    05:00 +14°C° 0 mm 2 mps 751 mmHg 80%
    06:00 +14°C° 0 mm 2 mps 752 mmHg 80%
    07:00 +16°C° 0 mm 3 mps 752 mmHg 75%
    08:00 +18°C° 0 mm 3 mps 752 mmHg 69%
    09:00 +20°C° 0 mm 3 mps 752 mmHg 63%
    10:00 +21°C° 0 mm 3 mps 752 mmHg 59%
    11:00 +22°C° 0 mm 3 mps 752 mmHg 54%
    12:00 +24°C° 0 mm 3 mps 752 mmHg 50%
    13:00 +24°C° 0 mm 3 mps 752 mmHg 52%
    14:00 +24°C° 0 mm 3 mps 752 mmHg 54%
    15:00 +24°C° 0 mm 2 mps 752 mmHg 55%
    16:00 +23°C° 0 mm 2 mps 752 mmHg 59%
    17:00 +23°C° 0 mm 2 mps 751 mmHg 63%
    18:00 +21°C° 0 mm 2 mps 751 mmHg 66%
    19:00 +20°C° 0 mm 2 mps 751 mmHg 69%
    20:00 +18°C° 0 mm 3 mps 751 mmHg 72%
    21:00 +17°C° 0 mm 3 mps 751 mmHg 75%
    22:00 +17°C° 0 mm 4 mps 750 mmHg 75%
    23:00 +17°C° 0 mm 4 mps 750 mmHg 76%

    Tomorrow, 16 August, Thursday

    Time Temperature Precipitation Wind Pressure Humidity
    00:00 +18°C° 0 mm 4 mps 749 mmHg 76%
    01:00 +16°C° 0.4 mm 5 mps 749 mmHg 79%
    02:00 +16°C° 0.4 mm 5 mps 749 mmHg 81%
    03:00 +16°C° 0.4 mm 5 mps 748 mmHg 84%
    04:00 +16°C° 0.2 mm 5 mps 748 mmHg 84%
    05:00 +17°C° 0.2 mm 5 mps 748 mmHg 84%
    06:00 +17°C° 0.2 mm 5 mps 748 mmHg 84%
    07:00 +19°C° 0.3 mm 5 mps 748 mmHg 83%
    08:00 +20°C° 0.3 mm 5 mps 748 mmHg 82%
    09:00 +21°C° 0.3 mm 6 mps 748 mmHg 80%
    10:00 +22°C° 0.1 mm 6 mps 748 mmHg 78%
    11:00 +23°C° 0.1 mm 6 mps 748 mmHg 75%
    12:00 +24°C° 0.1 mm 6 mps 748 mmHg 73%
    13:00 +25°C° 0.2 mm 5 mps 748 mmHg 71%
    14:00 +25°C° 0.2 mm 5 mps 748 mmHg 69%
    15:00 +26°C° 0.2 mm 5 mps 748 mmHg 67%
    16:00 +25°C° 0.2 mm 4 mps 748 mmHg 72%
    17:00 +23°C° 0.2 mm 4 mps 749 mmHg 76%
    18:00 +22°C° 0.2 mm 3 mps 749 mmHg 81%
    19:00 +20°C° 0.1 mm 3 mps 749 mmHg 85%
    20:00 +19°C° 0.1 mm 2 mps 749 mmHg 89%
    21:00 +18°C° 0.1 mm 2 mps 750 mmHg 93%
    22:00 +17°C° 0 mm 2 mps 750 mmHg 94%
    23:00 +16°C° 0 mm 2 mps 750 mmHg 95%

    Day after tomorrow, 17 August, Friday

    Time Temperature Precipitation Wind Pressure Humidity
    00:00 +16°C° 0 mm 2 mps 750 mmHg 96%
    01:00 +16°C° 0 mm 2 mps 750 mmHg 95%
    02:00 +15°C° 0 mm 2 mps 750 mmHg 94%
    03:00 +15°C° 0 mm 2 mps 751 mmHg 93%
    04:00 +15°C° 0 mm 2 mps 751 mmHg 92%
    05:00 +15°C° 0 mm 2 mps 751 mmHg 91%
    06:00 +15°C° 0 mm 2 mps 751 mmHg 90%
    07:00 +17°C° 0 mm 2 mps 752 mmHg 84%
    08:00 +18°C° 0 mm 3 mps 752 mmHg 79%
    09:00 +19°C° 0 mm 3 mps 752 mmHg 74%
    10:00 +20°C° 0.1 mm 3 mps 752 mmHg 69%
    11:00 +21°C° 0.1 mm 3 mps 752 mmHg 64%
    12:00 +22°C° 0.1 mm 3 mps 752 mmHg 59%
    13:00 +22°C° 0.1 mm 4 mps 752 mmHg 57%
    14:00 +22°C° 0.1 mm 4 mps 752 mmHg 56%
    15:00 +22°C° 0.1 mm 4 mps 752 mmHg 54%
    16:00 +21°C° 0 mm 4 mps 752 mmHg 59%
    17:00 +20°C° 0 mm 4 mps 753 mmHg 63%
    18:00 +19°C° 0 mm 3 mps 753 mmHg 68%
    19:00 +17°C° 0 mm 3 mps 753 mmHg 72%
    20:00 +16°C° 0 mm 3 mps 753 mmHg 76%
    21:00 +13°C° 0 mm 3 mps 753 mmHg 80%
    22:00 +13°C° 0 mm 3 mps 754 mmHg 82%
    23:00 +12°C° 0 mm 3 mps 754 mmHg 84%

    18 August, Saturday

    Time Temperature Precipitation Wind Pressure Humidity
    00:00 +12°C° 0 mm 3 mps 754 mmHg 86%
    01:00 +11°C° 0 mm 3 mps 754 mmHg 87%
    02:00 +11°C° 0 mm 3 mps 754 mmHg 87%
    03:00 +10°C° 0 mm 3 mps 755 mmHg 88%
    04:00 +11°C° 0 mm 4 mps 755 mmHg 87%
    05:00 +11°C° 0 mm 4 mps 755 mmHg 86%
    06:00 +11°C° 0 mm 4 mps 755 mmHg 84%
    07:00 +13°C° 0 mm 5 mps 756 mmHg 78%
    08:00 +14°C° 0 mm 5 mps 756 mmHg 72%
    09:00 +16°C° 0 mm 5 mps 756 mmHg 66%
    10:00 +17°C° 0 mm 5 mps 756 mmHg 63%
    11:00 +19°C° 0 mm 5 mps 756 mmHg 59%
    12:00 +20°C° 0 mm 5 mps 756 mmHg 56%
    13:00 +20°C° 0 mm 5 mps 756 mmHg 56%
    14:00 +20°C° 0 mm 4 mps 756 mmHg 55%
    15:00 +20°C° 0 mm 4 mps 756 mmHg 55%
    16:00 +19°C° 0 mm 4 mps 756 mmHg 60%
    17:00 +18°C° 0 mm 4 mps 756 mmHg 65%
    18:00 +17°C° 0 mm 3 mps 756 mmHg 69%
    19:00 +16°C° 0 mm 3 mps 756 mmHg 73%
    20:00 +13°C° 0 mm 3 mps 756 mmHg 77%
    21:00 +13°C° 0 mm 2 mps 757 mmHg 81%
    22:00 +12°C° 0 mm 2 mps 757 mmHg 82%
    23:00 +12°C° 0 mm 2 mps 757 mmHg 83%

    19 August, Sunday

    Time Temperature Precipitation Wind Pressure Humidity
    00:00 +10°C° 0 mm 2 mps 757 mmHg 84%
    01:00 +10°C° 0 mm 2 mps 757 mmHg 85%
    02:00 +10°C° 0 mm 2 mps 757 mmHg 86%
    03:00 +9°C° 0 mm 2 mps 757 mmHg 87%
    04:00 +10°C° 0 mm 2 mps 757 mmHg 86%
    05:00 +10°C° 0 mm 2 mps 757 mmHg 84%
    06:00 +12°C° 0 mm 2 mps 758 mmHg 83%
    07:00 +14°C° 0 mm 2 mps 757 mmHg 75%
    08:00 +16°C° 0 mm 2 mps 757 mmHg 68%
    09:00 +18°C° 0 mm 2 mps 757 mmHg 61%
    10:00 +19°C° 0 mm 2 mps 757 mmHg 57%
    11:00 +20°C° 0 mm 2 mps 757 mmHg 52%
    12:00 +21°C° 0 mm 2 mps 757 mmHg 48%
    13:00 +21°C° 0 mm 2 mps 756 mmHg 47%
    14:00 +21°C° 0 mm 2 mps 756 mmHg 47%
    15:00 +23°C° 0 mm 1 mps 756 mmHg 46%
    16:00 +22°C° 0 mm 1 mps 756 mmHg 51%
    17:00 +21°C° 0 mm 1 mps 755 mmHg 57%
    18:00 +20°C° 0 mm 1 mps 755 mmHg 62%
    19:00 +18°C° 0 mm 1 mps 755 mmHg 65%
    20:00 +16°C° 0 mm 1 mps 755 mmHg 67%
    21:00 +14°C° 0 mm 1 mps 755 mmHg 70%
    22:00 +14°C° 0 mm 1 mps 755 mmHg 72%
    23:00 +14°C° 0 mm 1 mps 755 mmHg 73%

    20 August, Monday

    Time Temperature Precipitation Wind Pressure Humidity
    00:00 +13°C° 0 mm 1 mps 755 mmHg 75%
    01:00 +13°C° 0 mm 1 mps 755 mmHg 76%
    02:00 +13°C° 0 mm 1 mps 755 mmHg 78%
    03:00 +12°C° 0 mm 1 mps 755 mmHg 80%
    04:00 +13°C° 0 mm 1 mps 755 mmHg 79%
    05:00 +13°C° 0 mm 1 mps 755 mmHg 79%
    06:00 +14°C° 0 mm 1 mps 754 mmHg 79%
    07:00 +16°C° 0 mm 1 mps 754 mmHg 73%
    08:00 +17°C° 0 mm 2 mps 754 mmHg 67%
    09:00 +19°C° 0 mm 2 mps 754 mmHg 61%
    10:00 +20°C° 0 mm 2 mps 754 mmHg 57%
    11:00 +22°C° 0 mm 3 mps 753 mmHg 54%
    12:00 +24°C° 0 mm 3 mps 753 mmHg 50%
    13:00 +24°C° 0 mm 3 mps 753 mmHg 50%
    14:00 +24°C° 0 mm 3 mps 753 mmHg 49%
    15:00 +24°C° 0 mm 3 mps 752 mmHg 49%
    16:00 +22°C° 0 mm 3 mps 752 mmHg 55%
    17:00 +21°C° 0 mm 3 mps 752 mmHg 60%
    18:00 +20°C° 0 mm 2 mps 752 mmHg 66%
    19:00 +19°C° 0 mm 2 mps 752 mmHg 69%
    20:00 +17°C° 0 mm 2 mps 751 mmHg 72%
    21:00 +16°C° 0 mm 2 mps 751 mmHg 76%
    22:00 +15°C° 0 mm 2 mps 751 mmHg 77%
    23:00 +15°C° 0 mm 2 mps 751 mmHg 79%
    Show more